Regional Weather Roundup
Issued by NWS

Home | Current Version | Previous Version | Text Only | Print | Product List | Glossary Off
Versions: 1 2 3 4 5 6 7 8 9 10 11 12 13 14 15 16 17 18 19 20 21 22 23 24 25 26 27 28 29 30 31 32 33 34 35 36 37 38 39 40 41 42 43 44 45 46 47 48 49 50

869
ASUS43 KLSX 300307
RWRMO

WEATHER SUMMARY FOR MISSOURI
NATIONAL WEATHER SERVICE SPRINGFIELD MO
1000 PM CDT SUN MAY 29 2016

NOTE: "FAIR" INDICATES FEW OR NO CLOUDS BELOW 12,000 FEET WITH NO
       SIGNIFICANT WEATHER AND/OR OBSTRUCTIONS TO VISIBILITY.
       CURRENT SKY AND/OR WEATHER CONDITIONS ARE NOT AVAILABLE FOR
       CHILLICOTHE AND FARMINGTON.

MOZ001>031-035>038-043-044-053-054-300400-
...NORTHERN AND WESTERN MISSOURI...

CITY           SKY/WX    TMP DP  RH WIND       PRES   REMARKS
KANSAS CTY INT CLOUDY    68  61  78 S8        30.05R
KANSAS C DTWN  CLOUDY    77  59  53 SW3       30.04R
LEE`S SUMMIT   CLOUDY    75  60  59 S7        30.06R
ST JOSEPH      CLOUDY    73  64  73 SW5       30.04R
CHILLICOTHE      N/A     70  66  87 CALM      30.05R
KIRKSVILLE     CLOUDY    70  63  78 S3        30.05R

$$
MOZ066>068-077>081-088>096-101>105-300400-
...SOUTHWEST MISSOURI...

CITY           SKY/WX    TMP DP  RH WIND       PRES   REMARKS
SPRINGFIELD    CLEAR     72  62  71 SE5       30.08R
JOPLIN         CLOUDY    70  65  84 SE3       30.06R

$$
MOZ032>034-039>042-045>050-055>058-069>072-300400-
...CENTRAL MISSOURI...

CITY           SKY/WX    TMP DP  RH WIND       PRES   REMARKS
COLUMBIA       CLOUDY    73  63  70 S6        30.06S
JEFFERSON CITY PTCLDY    72  64  76 E3        30.05R
ROLLA          CLEAR     69  61  75 S7        30.08R
SEDALIA        PTCLDY    73  63  70 S6        30.08R
WARRENSBURG    CLOUDY    73  63  68 S3        30.06R

$$
MOZ051-052-059>065-300400-
...EAST CENTRAL MISSOURI...

CITY           SKY/WX    TMP DP  RH WIND       PRES   REMARKS
ST LOUIS INTL  CLOUDY    77  59  53 CALM      30.07R
SPIRIT OF STL  PTCLDY    70  66  87 CALM      30.05R
ST CHARLES     CLOUDY    71  67  87 N3        30.05R

$$
MOZ072>076-082>087-097>100-106>115-300400-
...SOUTH CENTRAL AND SOUTHEAST MISSOURI...

CITY           SKY/WX    TMP DP  RH WIND       PRES   REMARKS
CAPE GIRARDEAU PTCLDY    71  66  84 CALM      30.06R
FARMINGTON     CLOUDY    68  66  93 CALM      30.09S
POPLAR BLUFF   PTCLDY    73  70  90 CALM      30.06R
WEST PLAINS    CLEAR     68  64  87 CALM      30.11S

$$



USA.gov is the U.S. government's official web portal to all federal, state and local government web resources and services.